TimeCDT,TemperatureF,Dew PointF,Humidity,Sea Level PressureIn,VisibilityMPH,Wind Direction,Wind SpeedMPH,Gust SpeedMPH,PrecipitationIn,Events,Conditions,WindDirDegrees,DateUTC
12:15 AM,57.6,52.9,84,29.87,10.0,NNW,3.5,-,N/A,,Clear,340,2013-09-23 05:15:00
12:35 AM,57.2,52.9,85,29.86,10.0,Calm,Calm,-,N/A,,Clear,0,2013-09-23 05:35:00
12:55 AM,56.8,52.7,86,29.87,10.0,Calm,Calm,-,N/A,,Clear,0,2013-09-23 05:55:00
1:15 AM,56.8,52.0,84,29.87,10.0,Calm,Calm,-,N/A,,Clear,0,2013-09-23 06:15:00
1:35 AM,56.5,51.1,82,29.87,10.0,Calm,Calm,-,N/A,,Clear,0,2013-09-23 06:35:00
1:55 AM,56.3,51.3,83,29.87,10.0,WNW,3.5,-,N/A,,Clear,300,2013-09-23 06:55:00
2:15 AM,55.6,50.9,84,29.87,10.0,Calm,Calm,-,N/A,,Clear,0,2013-09-23 07:15:00
2:35 AM,54.9,50.5,85,29.87,10.0,Calm,Calm,-,N/A,,Clear,0,2013-09-23 07:35:00
2:55 AM,54.5,50.0,85,29.86,10.0,NW,3.5,-,N/A,,Clear,310,2013-09-23 07:55:00
3:15 AM,54.1,50.0,86,29.85,10.0,NW,3.5,-,N/A,,Clear,310,2013-09-23 08:15:00
3:35 AM,53.6,50.0,88,29.85,10.0,NW,3.5,-,N/A,,Clear,320,2013-09-23 08:35:00
3:55 AM,53.4,49.8,88,29.85,10.0,Calm,Calm,-,N/A,,Clear,0,2013-09-23 08:55:00
4:15 AM,52.5,49.1,88,29.85,10.0,Calm,Calm,-,N/A,,Clear,0,2013-09-23 09:15:00
4:35 AM,52.7,49.1,88,29.84,10.0,Calm,Calm,-,N/A,,Clear,0,2013-09-23 09:35:00
4:55 AM,52.7,49.1,88,29.84,10.0,Calm,Calm,-,N/A,,Clear,0,2013-09-23 09:55:00
5:15 AM,52.5,50.0,91,29.85,10.0,Calm,Calm,-,N/A,,Clear,0,2013-09-23 10:15:00
5:35 AM,52.0,49.6,92,29.85,10.0,Calm,Calm,-,N/A,,Clear,0,2013-09-23 10:35:00
5:55 AM,51.8,49.5,92,29.85,10.0,Calm,Calm,-,N/A,,Clear,0,2013-09-23 10:55:00
6:15 AM,51.3,48.6,90,29.85,10.0,Calm,Calm,-,N/A,,Clear,0,2013-09-23 11:15:00
6:35 AM,50.9,47.8,89,29.85,10.0,NW,3.5,-,N/A,,Clear,320,2013-09-23 11:35:00
6:55 AM,50.0,47.5,91,29.86,10.0,Calm,Calm,-,N/A,,Clear,0,2013-09-23 11:55:00
7:15 AM,50.9,48.0,90,29.86,10.0,Calm,Calm,-,N/A,,Clear,0,2013-09-23 12:15:00
7:35 AM,50.5,47.5,89,29.86,10.0,NW,3.5,-,N/A,,Clear,310,2013-09-23 12:35:00
7:55 AM,51.6,48.6,89,29.87,10.0,Calm,Calm,-,N/A,,Clear,0,2013-09-23 12:55:00
8:15 AM,52.2,49.6,91,29.87,10.0,Calm,Calm,-,N/A,,Clear,0,2013-09-23 13:15:00
8:35 AM,53.6,50.5,89,29.87,10.0,Calm,Calm,-,N/A,,Clear,0,2013-09-23 13:35:00
8:55 AM,55.9,51.8,86,29.88,10.0,Calm,Calm,-,N/A,,Clear,0,2013-09-23 13:55:00
9:15 AM,59.0,52.9,80,29.87,10.0,Calm,Calm,-,N/A,,Clear,0,2013-09-23 14:15:00
9:35 AM,62.4,54.0,74,29.88,10.0,Calm,Calm,-,N/A,,Clear,0,2013-09-23 14:35:00
9:55 AM,65.7,53.1,64,29.88,10.0,Calm,Calm,-,N/A,,Clear,0,2013-09-23 14:55:00
10:15 AM,69.4,53.1,56,29.89,10.0,Calm,Calm,-,N/A,,Clear,0,2013-09-23 15:15:00
10:35 AM,70.7,52.9,53,29.89,10.0,Calm,Calm,-,N/A,,Clear,0,2013-09-23 15:35:00
10:55 AM,72.9,52.3,48,29.88,10.0,Calm,Calm,-,N/A,,Clear,0,2013-09-23 15:55:00
11:15 AM,75.6,49.3,39,29.88,10.0,Calm,Calm,-,N/A,,Clear,0,2013-09-23 16:15:00
11:35 AM,77.9,46.0,32,29.88,10.0,SSW,3.5,-,N/A,,Clear,210,2013-09-23 16:35:00
11:55 AM,78.4,43.3,29,29.88,10.0,Calm,Calm,-,N/A,,Clear,0,2013-09-23 16:55:00
12:15 PM,79.3,43.9,28,29.87,10.0,ESE,4.6,-,N/A,,Clear,110,2013-09-23 17:15:00
12:35 PM,79.9,43.7,28,29.87,10.0,Calm,Calm,-,N/A,,Clear,0,2013-09-23 17:35:00
1:15 PM,80.8,43.5,27,29.86,10.0,Calm,Calm,-,N/A,,Clear,0,2013-09-23 18:15:00
1:35 PM,81.1,43.5,26,29.85,10.0,Calm,Calm,-,N/A,,Clear,0,2013-09-23 18:35:00
1:55 PM,82.4,44.4,26,29.85,10.0,South,4.6,-,N/A,,Clear,180,2013-09-23 18:55:00
2:15 PM,82.9,44.6,26,29.84,10.0,SE,5.8,-,N/A,,Clear,140,2013-09-23 19:15:00
2:35 PM,84.0,44.4,25,29.83,10.0,SE,4.6,-,N/A,,Clear,140,2013-09-23 19:35:00
2:55 PM,84.2,45.1,25,29.82,10.0,SSE,5.8,-,N/A,,Clear,150,2013-09-23 19:55:00
3:15 PM,84.6,43.9,24,29.82,10.0,Calm,Calm,-,N/A,,Clear,0,2013-09-23 20:15:00
3:35 PM,85.1,44.4,24,29.81,10.0,South,5.8,-,N/A,,Clear,170,2013-09-23 20:35:00
3:55 PM,85.3,45.0,24,29.81,10.0,West,4.6,-,N/A,,Clear,260,2013-09-23 20:55:00
4:15 PM,85.8,44.2,23,29.80,10.0,East,6.9,-,N/A,,Clear,80,2013-09-23 21:15:00
4:35 PM,85.5,44.4,24,29.80,10.0,WSW,3.5,-,N/A,,Clear,240,2013-09-23 21:35:00
4:55 PM,85.8,43.9,23,29.80,10.0,Calm,Calm,-,N/A,,Clear,0,2013-09-23 21:55:00
5:15 PM,86.4,44.8,23,29.80,10.0,Calm,Calm,-,N/A,,Clear,0,2013-09-23 22:15:00
5:35 PM,85.6,44.2,23,29.80,10.0,Calm,Calm,-,N/A,,Clear,0,2013-09-23 22:35:00
5:55 PM,85.8,45.5,24,29.80,10.0,South,5.8,-,N/A,,Clear,170,2013-09-23 22:55:00
6:15 PM,85.3,44.4,24,29.80,10.0,SSE,3.5,-,N/A,,Clear,160,2013-09-23 23:15:00
6:35 PM,84.9,46.2,26,29.80,10.0,SSE,5.8,-,N/A,,Clear,160,2013-09-23 23:35:00
6:55 PM,83.3,47.5,29,29.81,10.0,South,4.6,-,N/A,,Clear,170,2013-09-23 23:55:00
7:15 PM,82.0,47.1,29,29.81,10.0,SSE,3.5,-,N/A,,Clear,150,2013-09-24 00:15:00
7:35 PM,80.2,46.8,31,29.82,10.0,SSE,3.5,-,N/A,,Clear,150,2013-09-24 00:35:00
7:55 PM,78.8,46.6,32,29.82,10.0,SSE,3.5,-,N/A,,Clear,150,2013-09-24 00:55:00
8:15 PM,76.8,47.5,35,29.83,10.0,Calm,Calm,-,N/A,,Clear,0,2013-09-24 01:15:00
8:35 PM,72.5,51.4,47,29.83,10.0,Calm,Calm,-,N/A,,Clear,0,2013-09-24 01:35:00
8:55 PM,69.3,55.2,61,29.84,10.0,Calm,Calm,-,N/A,,Clear,0,2013-09-24 01:55:00
9:15 PM,67.3,52.5,59,29.85,10.0,Calm,Calm,-,N/A,,Clear,0,2013-09-24 02:15:00
9:35 PM,67.1,53.2,61,29.86,10.0,Calm,Calm,-,N/A,,Clear,0,2013-09-24 02:35:00
9:55 PM,68.0,53.2,59,29.87,10.0,Calm,Calm,-,N/A,,Clear,0,2013-09-24 02:55:00
10:15 PM,67.3,54.7,64,29.87,10.0,Calm,Calm,-,N/A,,Clear,0,2013-09-24 03:15:00
10:35 PM,66.0,55.9,70,29.87,10.0,Calm,Calm,-,N/A,,Clear,0,2013-09-24 03:35:00
10:55 PM,65.5,56.3,72,29.88,10.0,WNW,3.5,-,N/A,,Clear,300,2013-09-24 03:55:00
11:15 PM,64.9,55.2,71,29.88,10.0,Calm,Calm,-,N/A,,Clear,0,2013-09-24 04:15:00
11:35 PM,63.5,55.2,74,29.89,10.0,Calm,Calm,-,N/A,,Clear,0,2013-09-24 04:35:00
11:55 PM,63.5,55.6,75,29.89,10.0,Calm,Calm,-,N/A,,Clear,0,2013-09-24 04:55:00